Location: Andrest
(43.3200°N, 0.0641°E)
Time: 14:50:57
(UTC+00:00)

Cosmos 1151 Rocket - Visible Passes

Search period start: 17 April 2021 00:00
Search period end: 27 April 2021 00:00
Orbit: 592 x 615 km, 82.5° (Epoch: 17 April)

Date Brightness Start Highest point End Pass type
(mag) Time Alt. Az. Time Alt. Az. Time Alt. Az.
17 Apr 5.8 00:33:47 16° NNW 00:33:47 16° NNW 00:34:43 10° N visible
17 Apr 5.9 23:09:20 11° NNE 23:09:20 11° NNE 23:09:34 10° NNE visible
18 Apr 5.8 00:46:10 14° NNW 00:46:10 14° NNW 00:46:57 10° NNW visible
18 Apr 5.7 23:21:43 15° NNE 23:21:43 15° NNE 23:22:30 10° NNE visible
19 Apr 5.9 00:58:32 11° NW 00:58:32 11° NW 00:58:50 10° NNW visible
19 Apr 5.6 23:34:05 18° NNE 23:34:05 18° NNE 23:35:14 10° N visible
20 Apr 5.5 23:46:26 20° N 23:46:26 20° N 23:47:49 10° N visible
21 Apr 5.8 22:21:57 10° NE 22:21:57 10° NE 22:22:02 10° NE visible
21 Apr 5.5 23:58:46 19° NNW 23:58:46 19° NNW 00:00:14 10° N visible
22 Apr 5.5 22:34:17 15° NE 22:34:17 15° NE 22:35:13 10° NNE visible
23 Apr 5.6 00:11:06 16° NNW 00:11:06 16° NNW 00:12:25 10° NNW visible
23 Apr 5.2 22:46:36 21° NNE 22:46:36 21° NNE 22:48:06 10° NNE visible
24 Apr 5.8 00:23:25 12° NW 00:23:25 12° NW 00:24:12 10° NW visible
24 Apr 5.0 22:58:54 26° N 22:58:54 26° N 23:00:49 10° N visible
25 Apr 5.0 23:11:11 28° NNW 23:11:11 28° NNW 23:13:22 10° N visible
26 Apr 5.3 21:46:38 15° NE 21:46:38 15° NE 21:47:45 10° NE visible
26 Apr 5.1 23:23:26 25° NW 23:23:26 25° NW 23:25:45 10° N visible
